EW6292 Weather Reports


time (UTC)temp
C
wind
direction
speed
KPH
gust
KPH
rain 1hr
cm
rain 24hr
cm
rain mn
cm
humidity
%
barometer
mb
20260906130201 24 175 0.0 0.0 0.00 0.00 0.00 90 1012.9
20260906125919 24 175 0.0 0.0 0.00 0.00 0.00 90 1012.8
20260906125148 24 175 0.0 0.0 0.00 0.00 0.00 89 1012.9
20260906124643 23 175 0.0 0.0 0.00 0.00 0.00 89 1012.9
20260906124137 23 175 0.0 0.0 0.00 0.00 0.00 89 1012.7
20260906123850 23 175 0.0 0.0 0.00 0.00 0.00 89 1012.6
20260906123125 23 175 0.0 0.0 0.00 0.00 0.00 89 1012.7
20260906122620 23 175 0.0 0.0 0.00 0.00 0.00 88 1012.6
20260906122334 23 175 0.0 0.0 0.00 0.00 0.00 88 1012.6
20260906121608 23 175 0.0 0.0 0.00 0.00 0.00 88 1012.5
20260906121100 23 175 0.0 0.0 0.00 0.00 0.00 88 1012.4
20260906120556 23 317 0.0 0.0 0.00 0.00 0.00 88 1012.2
20260906120541 23 317 0.0 0.0 0.00 0.00 0.00 88 1012.0
20260906115542 23 239 0.0 0.0 0.00 0.00 0.00 88 1011.9
20260906115037 23 240 0.0 0.0 0.00 0.00 0.00 88 1011.9
20260906114530 23 240 0.0 1.6 0.00 0.00 0.00 88 1011.8
20260906114037 23 239 0.0 1.6 0.00 0.00 0.00 88 1011.7
20260906113525 23 337 0.0 0.0 0.00 0.00 0.00 88 1011.7
20260906113023 23 329 0.0 1.6 0.00 0.00 0.00 88 1011.5
20260906112741 23 329 1.6 4.8 0.00 0.00 0.00 88 1011.5
20260906112021 23 335 1.6 4.8 0.00 0.00 0.00 88 1011.4
20260906111743 23 0 1.6 3.2 0.00 0.00 0.00 87 1011.4
20260906111021 23 348 1.6 4.8 0.00 0.00 0.00 87 1011.4
20260906110521 23 348 3.2 6.4 0.00 0.00 0.00 87 1011.2
20260906110019 23 331 3.2 6.4 0.00 0.00 0.00 87 1011.2
20260906105519 23 337 0.0 4.8 0.00 0.00 0.00 87 1011.1
20260906105018 23 304 0.0 0.0 0.00 0.00 0.00 87 1011.2
20260906104744 23 304 0.0 0.0 0.00 0.00 0.00 87 1011.1
20260906104017 23 304 0.0 0.0 0.00 0.00 0.00 86 1011.1
20260906103517 23 304 0.0 0.0 0.00 0.00 0.00 87 1011.0
20260906103015 23 24 0.0 0.0 0.00 0.00 0.00 86 1010.9
20260906102512 23 24 0.0 0.0 0.00 0.00 0.00 86 1011.0
20260906102247 24 24 0.0 0.0 0.00 0.00 0.00 86 1010.9
20260906101509 24 24 0.0 0.0 0.00 0.00 0.00 86 1010.8
20260906101020 24 24 0.0 0.0 0.00 0.00 0.00 85 1010.7
20260906100510 24 24 0.0 0.0 0.00 0.00 0.00 85 1010.7
20260906100002 24 24 0.0 0.0 0.00 0.00 0.00 85 1010.6
20260906095456 24 24 0.0 0.0 0.00 0.00 0.00 84 1010.6
20260906095215 24 24 0.0 0.0 0.00 0.00 0.00 84 1010.7
20260906094449 24 24 0.0 0.0 0.00 0.00 0.00 84 1010.6
20260906093949 24 24 0.0 0.0 0.00 0.00 0.00 84 1010.4
20260906093446 24 24 0.0 0.0 0.00 0.00 0.00 84 1010.5
20260906092947 24 24 0.0 0.0 0.00 0.00 0.00 84 1010.6
20260906092708 25 24 0.0 0.0 0.00 0.00 0.00 84 1010.6
20260906092157 25 24 0.0 0.0 0.00 0.00 0.00 84 1010.6
20260906092045 25 24 0.0 0.0 0.00 0.00 0.00 84 1010.7
20260906091206 25 24 0.0 0.0 0.00 0.00 0.00 84 1010.6
20260906090445 25 24 0.0 0.0 0.00 0.00 0.00 83 1010.7
20260906085945 25 24 0.0 0.0 0.00 0.00 0.00 83 1010.7
20260906085709 25 24 0.0 0.0 0.00 0.00 0.00 83 1010.7
20260906084944 25 24 0.0 0.0 0.00 0.00 0.00 83 1010.6
20260906084706 25 355 0.0 0.0 0.00 0.00 0.00 83 1010.6
20260906084203 25 355 0.0 0.0 0.00 0.00 0.00 83 1010.7
20260906083445 25 355 0.0 0.0 0.00 0.00 0.00 83 1010.5
20260906082945 25 355 0.0 0.0 0.00 0.00 0.00 83 1010.4
20260906082455 25 355 0.0 0.0 0.00 0.00 0.00 83 1010.5
20260906081940 25 355 0.0 0.0 0.00 0.00 0.00 83 1010.5
20260906081435 25 355 0.0 0.0 0.00 0.00 0.00 83 1010.4
20260906080929 25 355 0.0 0.0 0.00 0.00 0.00 83 1010.4
20260906080422 25 355 0.0 0.0 0.00 0.00 0.00 83 1010.4
20260906075917 25 355 0.0 0.0 0.00 0.00 0.00 84 1010.4
20260906075415 25 355 0.0 0.0 0.00 0.00 0.00 84 1010.4
20260906074915 25 355 0.0 4.8 0.00 0.00 0.00 84 1010.3
20260906074636 25 18 1.6 4.8 0.00 0.00 0.00 84 1010.3
20260906073911 25 355 0.0 4.8 0.00 0.00 0.00 84 1010.3
20260906073409 25 5 0.0 0.0 0.00 0.00 0.00 83 1010.3
20260906072907 25 5 0.0 0.0 0.00 0.00 0.00 83 1010.3
20260906072405 25 5 0.0 0.0 0.00 0.00 0.00 83 1010.3
20260906071903 25 5 0.0 0.0 0.00 0.00 0.00 82 1010.3
20260906071403 25 5 0.0 0.0 0.00 0.00 0.00 82 1010.2
20260906070902 25 5 0.0 0.0 0.00 0.00 0.00 82 1010.3
20260906070627 25 5 0.0 0.0 0.00 0.00 0.00 82 1010.2
20260906065859 25 5 0.0 0.0 0.00 0.00 0.00 82 1010.2
20260906065357 25 5 0.0 0.0 0.00 0.00 0.00 82 1010.3
20260906064854 25 5 0.0 0.0 0.00 0.00 0.00 82 1010.3
20260906064617 25 5 0.0 0.0 0.00 0.00 0.00 82 1010.3
20260906063857 25 5 0.0 0.0 0.00 0.00 0.00 82 1010.3
20260906063352 25 5 0.0 0.0 0.00 0.00 0.00 82 1010.4
20260906063114 25 5 0.0 0.0 0.00 0.00 0.00 82 1010.5
20260906062609 25 5 0.0 0.0 0.00 0.00 0.00 82 1010.5
20260906061853 25 5 0.0 0.0 0.00 0.00 0.00 82 1010.6
20260906061346 25 5 0.0 0.0 0.00 0.00 0.00 82 1010.7
20260906060849 25 5 0.0 0.0 0.00 0.00 0.00 82 1010.8
20260906060346 25 5 0.0 0.0 0.00 0.00 0.00 82 1011.0
20260906055847 25 5 0.0 0.0 0.00 0.00 0.00 82 1011.1
20260906055347 25 5 0.0 0.0 0.00 0.00 0.00 82 1011.1
20260906054846 25 5 0.0 0.0 0.00 0.00 0.00 82 1011.1
20260906054610 25 5 0.0 0.0 0.00 0.00 0.00 82 1011.1
20260906054103 25 5 0.0 0.0 0.00 0.00 0.00 81 1011.0
20260906053611 25 5 0.0 0.0 0.00 0.00 0.00 81 1011.1
20260906052842 25 5 0.0 0.0 0.00 0.00 0.00 80 1011.1
20260906052602 25 5 0.0 0.0 0.00 0.00 0.00 80 1011.1
20260906052101 25 5 0.0 0.0 0.00 0.00 0.00 81 1011.1
20260906051342 25 5 0.0 1.6 0.00 0.00 0.00 81 1011.1
20260906050843 25 5 0.0 1.6 0.00 0.00 0.00 80 1011.1
20260906050342 25 5 0.0 0.0 0.00 0.00 0.00 80 1011.2
20260906045842 25 5 0.0 0.0 0.00 0.00 0.00 80 1011.4
20260906045342 25 5 0.0 1.6 0.00 0.00 0.00 80 1011.4
20260906044841 25 5 0.0 1.6 0.00 0.00 0.00 79 1011.2
20260906044340 26 5 0.0 3.2 0.00 0.00 0.00 78 1011.1
20260906044316 26 5 0.0 3.2 0.00 0.00 0.00 78 1011.2
20260906043338 26 5 0.0 0.0 0.00 0.00 0.00 79 1011.2
20260906042839 26 5 0.0 0.0 0.00 0.00 0.00 80 1011.2
20260906042338 26 5 0.0 0.0 0.00 0.00 0.00 80 1011.2
20260906041852 26 5 0.0 0.0 0.00 0.00 0.00 80 1011.2
20260906041338 26 5 0.0 0.0 0.00 0.00 0.00 80 1011.2
20260906040838 26 5 0.0 0.0 0.00 0.00 0.00 80 1011.2
20260906040336 26 5 0.0 0.0 0.00 0.00 0.00 80 1011.4
20260906035837 26 5 0.0 0.0 0.00 0.00 0.00 80 1011.2
20260906035337 26 5 0.0 0.0 0.00 0.00 0.00 80 1011.2
20260906034836 26 5 0.0 0.0 0.00 0.00 0.00 79 1011.0
20260906034336 26 5 0.0 0.0 0.00 0.00 0.00 79 1010.9
20260906033836 26 5 0.0 0.0 0.00 0.00 0.00 79 1010.8
20260906033337 26 5 0.0 0.0 0.00 0.00 0.00 78 1011.0
20260906032833 26 5 0.0 0.0 0.00 0.00 0.00 78 1010.9
20260906032332 26 5 0.0 0.0 0.00 0.00 0.00 77 1010.8
20260906031833 26 5 0.0 0.0 0.00 0.00 0.00 76 1010.8
20260906031332 26 5 0.0 0.0 0.00 0.00 0.00 77 1010.8
20260906031056 26 5 0.0 0.0 0.00 0.00 0.00 77 1010.6
20260906030332 26 5 0.0 0.0 0.00 0.00 0.00 77 1010.7
20260906025832 26 5 0.0 0.0 0.00 0.00 0.00 77 1010.7
20260906025332 26 5 0.0 0.0 0.00 0.00 0.00 76 1010.6
20260906025100 27 5 0.0 0.0 0.00 0.00 0.00 76 1010.6
20260906024553 27 5 0.0 0.0 0.00 0.00 0.00 76 1010.7
20260906023832 27 5 0.0 0.0 0.00 0.00 0.00 75 1010.6
20260906023332 27 5 0.0 0.0 0.00 0.00 0.00 75 1010.6
20260906022832 27 5 0.0 0.0 0.00 0.00 0.00 75 1010.6
20260906022333 27 5 0.0 0.0 0.00 0.00 0.00 75 1010.4
20260906021832 27 5 0.0 0.0 0.00 0.00 0.00 74 1010.4
20260906021332 27 5 0.0 0.0 0.00 0.00 0.00 73 1010.4
20260906020832 27 5 0.0 0.0 0.00 0.00 0.00 73 1010.3
20260906020330 28 5 0.0 0.0 0.00 0.00 0.00 73 1010.2
20260906015823 28 5 0.0 0.0 0.00 0.00 0.00 71 1010.0
20260906015324 28 5 0.0 0.0 0.00 0.00 0.00 70 1010.1
20260906014812 28 5 0.0 0.0 0.00 0.00 0.00 71 1010.0
20260906014305 28 5 0.0 0.0 0.00 0.00 0.00 71 1010.0
20260906013759 28 5 0.0 0.0 0.00 0.00 0.00 71 1010.0
20260906013253 28 5 0.0 0.0 0.00 0.00 0.00 70 1010.1
20260906012748 28 5 0.0 0.0 0.00 0.00 0.00 70 1010.0
20260906012242 28 5 0.0 0.0 0.00 0.00 0.00 69 1010.0
20260906011735 29 5 0.0 0.0 0.00 0.00 0.00 68 1009.9
20260906011229 29 5 0.0 0.0 0.00 0.00 0.00 69 1009.9
20260906010726 29 5 0.0 0.0 0.00 0.00 0.00 67 1009.9
20260906010438 30 5 0.0 0.0 0.00 0.00 0.00 67 1009.8
20260906005714 30 5 0.0 0.0 0.00 0.00 0.00 68 1009.8
20260906005205 30 5 0.0 0.0 0.00 0.00 0.00 66 1009.7
20260906004659 30 5 0.0 0.0 0.00 0.00 0.00 66 1009.6
20260906004153 30 5 0.0 0.0 0.00 0.00 0.00 66 1009.6
20260906003647 31 5 0.0 0.0 0.00 0.00 0.00 64 1009.6
20260906003410 31 5 0.0 0.0 0.00 0.00 0.00 63 1009.5
20260906002635 31 5 0.0 0.0 0.00 0.00 0.00 62 1009.6
20260906002130 31 5 0.0 0.0 0.00 0.00 0.00 62 1009.6
20260906001624 31 5 0.0 0.0 0.00 0.00 0.00 62 1009.7
20260906001118 31 5 0.0 0.0 0.00 0.00 0.00 62 1009.6
20260906000611 32 5 0.0 0.0 0.00 0.00 0.00 62 1009.8
20260906000106 32 5 0.0 0.0 0.00 0.00 0.00 60 1009.8
20260905235559 32 5 0.0 0.0 0.00 0.00 0.00 60 1009.9
20260905235054 32 5 0.0 0.0 0.00 0.00 0.00 59 1009.9
20260905234548 33 5 0.0 0.0 0.00 0.00 0.00 58 1009.9
20260905234308 33 5 0.0 0.0 0.00 0.00 0.00 57 1009.9
20260905233535 33 5 0.0 0.0 0.00 0.00 0.00 56 1009.8
20260905233032 34 5 0.0 0.0 0.00 0.00 0.00 56 1009.8
20260905232523 35 5 0.0 0.0 0.00 0.00 0.00 55 1009.8
20260905232018 35 5 0.0 0.0 0.00 0.00 0.00 53 1009.7
20260905231512 35 5 0.0 0.0 0.00 0.00 0.00 51 1009.7
20260905231005 36 5 0.0 0.0 0.00 0.00 0.00 49 1009.7
20260905230500 36 5 0.0 0.0 0.00 0.00 0.00 48 1009.7
20260905225952 37 5 0.0 0.0 0.00 0.00 0.00 48 1009.6
20260905225446 37 5 0.0 0.0 0.00 0.00 0.00 46 1009.6
20260905224939 37 5 0.0 0.0 0.00 0.00 0.00 46 1009.6
20260905224658 38 36 0.0 0.0 0.00 0.00 0.00 46 1009.6
20260905224149 38 173 0.0 0.0 0.00 0.00 0.00 45 1009.7
20260905223421 38 173 0.0 4.8 0.00 0.00 0.00 45 1009.7
20260905223141 38 173 0.0 4.8 0.00 0.00 0.00 44 1009.7
20260905222409 38 49 0.0 1.6 0.00 0.00 0.00 43 1009.8
20260905221904 38 49 0.0 3.2 0.00 0.00 0.00 44 1009.8
20260905221357 38 49 0.0 3.2 0.00 0.00 0.00 43 1009.7
20260905220851 38 5 0.0 1.6 0.00 0.00 0.00 44 1009.9
20260905220348 38 5 1.6 3.2 0.00 0.00 0.00 44 1009.8
20260905215840 39 5 3.2 6.4 0.00 0.00 0.00 41 1009.8
20260905215334 39 40 1.6 6.4 0.00 0.00 0.00 40 1009.7
20260905214828 39 55 1.6 4.8 0.00 0.00 0.00 39 1009.8
20260905214322 39 245 0.0 3.2 0.00 0.00 0.00 42 1009.8
20260905213816 39 18 0.0 1.6 0.00 0.00 0.00 42 1009.9
20260905213309 39 214 0.0 3.2 0.00 0.00 0.00 43 1009.9
20260905212803 39 292 0.0 3.2 0.00 0.00 0.00 41 1010.0
20260905212259 38 283 1.6 4.8 0.00 0.00 0.00 41 1010.0
20260905211751 38 225 3.2 12.9 0.00 0.00 0.00 41 1010.1
20260905211246 38 253 4.8 12.9 0.00 0.00 0.00 42 1010.0
20260905210739 39 327 3.2 8.0 0.00 0.00 0.00 41 1010.1
20260905210501 39 93 1.6 4.8 0.00 0.00 0.00 42 1010.1
20260905205730 39 169 1.6 4.8 0.00 0.00 0.00 45 1010.1
20260905205222 39 169 1.6 4.8 0.00 0.00 0.00 47 1010.1
20260905204716 38 215 1.6 6.4 0.00 0.00 0.00 44 1010.1
20260905204209 38 178 3.2 6.4 0.00 0.00 0.00 44 1010.2
20260905203704 38 211 3.2 9.7 0.00 0.00 0.00 42 1010.3
20260905203158 39 242 3.2 9.7 0.00 0.00 0.00 44 1010.4
20260905202651 38 238 3.2 9.7 0.00 0.00 0.00 44 1010.4
20260905202145 38 171 3.2 9.7 0.00 0.00 0.00 45 1010.5
20260905201639 38 254 1.6 4.8 0.00 0.00 0.00 46 1010.5
20260905201134 38 149 1.6 3.2 0.00 0.00 0.00 49 1010.7
20260905201117 38 124 1.6 3.2 0.00 0.00 0.00 47 1010.9
20260905200122 38 59 1.6 3.2 0.00 0.00 0.00 45 1010.9
20260905195615 38 149 1.6 3.2 0.00 0.00 0.00 45 1011.1
20260905195112 38 5 3.2 4.8 0.00 0.00 0.00 50 1011.1
20260905194828 38 5 1.6 4.8 0.00 0.00 0.00 47 1011.4
20260905194058 38 5 0.0 3.2 0.00 0.00 0.00 47 1011.4
20260905193552 38 84 0.0 0.0 0.00 0.00 0.00 46 1011.4
20260905193045 38 84 0.0 1.6 0.00 0.00 0.00 50 1011.5
20260905192540 38 84 1.6 4.8 0.00 0.00 0.00 48 1011.7
20260905192300 38 84 1.6 4.8 0.00 0.00 0.00 43 1011.7
20260905191527 38 56 1.6 6.4 0.00 0.00 0.00 48 1011.7
20260905191021 38 163 1.6 6.4 0.00 0.00 0.00 51 1011.8
20260905190515 38 190 1.6 6.4 0.00 0.00 0.00 51 1011.9
20260905190009 38 169 1.6 6.4 0.00 0.00 0.00 51 1011.8
20260905185516 37 36 3.2 9.7 0.00 0.00 0.00 44 1011.9
20260905184958 37 243 3.2 9.7 0.00 0.00 0.00 44 1012.0
20260905184454 37 156 1.6 8.0 0.00 0.00 0.00 47 1012.0
20260905184208 37 236 1.6 4.8 0.00 0.00 0.00 52 1012.1
20260905183449 37 111 1.6 6.4 0.00 0.00 0.00 50 1012.1
20260905182944 37 55 3.2 8.0 0.00 0.00 0.00 46 1012.2
20260905182444 36 67 4.8 8.0 0.00 0.00 0.00 47 1012.2
20260905181944 36 17 3.2 8.0 0.00 0.00 0.00 46 1012.3
20260905181444 36 19 1.6 4.8 0.00 0.00 0.00 47 1012.3
20260905181206 36 342 3.2 9.7 0.00 0.00 0.00 51 1012.4
20260905180453 36 5 4.8 9.7 0.00 0.00 0.00 48 1012.5
20260905180104 37 355 4.8 14.5 0.00 0.00 0.00 48 1012.4
20260905180015 37 14 3.2 11.3 0.00 0.00 0.00 48 1012.4
20260905180004 36 355 6.4 14.5 0.00 0.00 0.00 50 1012.5
20260905174437 37 178 3.2 11.3 0.00 0.00 0.00 48 1012.4
20260905174403 38 220 3.2 11.3 0.00 0.00 0.00 49 1012.5
20260905174032 37 263 3.2 11.3 0.00 0.00 0.00 47 1012.5
20260905172937 38 259 1.6 8.0 0.00 0.00 0.00 50 1012.6
20260905172438 38 175 1.6 8.0 0.00 0.00 0.00 47 1012.5
20260905171937 38 179 1.6 6.4 0.00 0.00 0.00 52 1012.7
20260905171438 38 187 1.6 6.4 0.00 0.00 0.00 50 1012.7
20260905170931 38 207 1.6 4.8 0.00 0.00 0.00 50 1012.7
20260905170426 38 166 1.6 4.8 0.00 0.00 0.00 54 1012.9
20260905165923 38 209 1.6 4.8 0.00 0.00 0.00 52 1013.0
20260905165423 37 193 1.6 4.8 0.00 0.00 0.00 48 1013.0
20260905164924 37 170 1.6 4.8 0.00 0.00 0.00 49 1013.0
20260905164424 37 155 1.6 6.4 0.00 0.00 0.00 51 1013.1
20260905163923 37 155 1.6 6.4 0.00 0.00 0.00 51 1013.2
20260905163424 37 170 1.6 6.4 0.00 0.00 0.00 50 1013.2
20260905162924 36 134 1.6 4.8 0.00 0.00 0.00 48 1013.3
20260905162424 36 176 3.2 8.0 0.00 0.00 0.00 52 1013.4
20260905161923 36 203 3.2 8.0 0.00 0.00 0.00 50 1013.5
20260905161901 36 148 3.2 6.4 0.00 0.00 0.00 53 1013.5
20260905160923 36 167 3.2 6.4 0.00 0.00 0.00 52 1013.4
20260905160436 36 171 1.6 6.4 0.00 0.00 0.00 54 1013.6
20260905155924 36 173 1.6 6.4 0.00 0.00 0.00 55 1013.6
20260905155423 36 271 1.6 6.4 0.00 0.00 0.00 54 1013.6
20260905154923 36 163 1.6 4.8 0.00 0.00 0.00 59 1013.5
20260905154424 35 185 1.6 4.8 0.00 0.00 0.00 57 1013.5
20260905153926 35 126 1.6 4.8 0.00 0.00 0.00 56 1013.6
20260905153424 35 218 1.6 4.8 0.00 0.00 0.00 59 1013.7
20260905153147 35 161 1.6 6.4 0.00 0.00 0.00 59 1013.8
20260905152437 34 157 1.6 6.4 0.00 0.00 0.00 60 1013.7
20260905151923 34 184 1.6 6.4 0.00 0.00 0.00 61 1013.7
20260905151422 34 188 1.6 6.4 0.00 0.00 0.00 64 1013.7
20260905150935 33 179 1.6 3.2 0.00 0.00 0.00 63 1013.8
20260905150423 33 150 0.0 3.2 0.00 0.00 0.00 64 1013.8
20260905145921 33 175 0.0 0.0 0.00 0.00 0.00 65 1013.7
20260905145421 32 143 0.0 0.0 0.00 0.00 0.00 64 1013.8
20260905144922 32 198 0.0 0.0 0.00 0.00 0.00 68 1013.6
20260905144421 32 155 0.0 0.0 0.00 0.00 0.00 69 1013.7
20260905143921 32 155 0.0 1.6 0.00 0.00 0.00 69 1013.7
20260905143645 31 140 0.0 1.6 0.00 0.00 0.00 70 1013.6
20260905142921 31 148 0.0 0.0 0.00 0.00 0.00 74 1013.6
20260905142651 30 148 0.0 0.0 0.00 0.00 0.00 75 1013.7
20260905142136 30 148 0.0 0.0 0.00 0.00 0.00 76 1013.6
20260905141417 30 147 0.0 0.0 0.00 0.00 0.00 76 1013.6
20260905140917 29 184 0.0 0.0 0.00 0.00 0.00 80 1013.6
20260905140636 28 227 0.0 0.0 0.00 0.00 0.00 83 1013.6
20260905135918 28 205 0.0 0.0 0.00 0.00 0.00 87 1013.5
20260905135418 27 123 0.0 0.0 0.00 0.00 0.00 90 1013.5
20260905134918 27 119 0.0 0.0 0.00 0.00 0.00 90 1013.6
20260905134417 27 119 0.0 0.0 0.00 0.00 0.00 91 1013.5
20260905133918 26 119 0.0 0.0 0.00 0.00 0.00 92 1013.4
20260905133637 26 67 0.0 0.0 0.00 0.00 0.00 92 1013.4
20260905132918 26 175 0.0 0.0 0.00 0.00 0.00 92 1013.3
20260905132646 26 71 0.0 0.0 0.00 0.00 0.00 92 1013.4
20260905131917 25 130 0.0 0.0 0.00 0.00 0.00 92 1013.5
20260905131417 25 130 0.0 0.0 0.00 0.00 0.00 92 1013.3
20260905130917 25 130 0.0 0.0 0.00 0.00 0.00 92 1013.3